Location: Myra
(43.4160°N, 88.0960°W)
Time: 05:51:21
(UTC-05:00)

Daily predictions for brighter satellites

Satellite Brightness Start Highest point End
(mag) Time Altitude Azimuth Time Altitude Azimuth Time Altitude Azimuth
Meteor 1-19 Rocket 4.2 00:01:20 10° N 00:07:12 76° E 00:07:57 66° SE
Meteor 1-13 Rocket 4.2 00:02:07 10° N 00:07:54 78° E 00:08:35 68° SE
ATLAS CENTAUR R/B 2.3 00:09:13 41° NW 00:09:15 41° NW 00:12:55 10° NNE
S3M 4.0 00:04:45 10° NNW 00:10:50 67° W 00:11:58 56° SW
Cosmos 1536 Rocket 3.8 00:07:07 10° N 00:10:57 65° NNE 00:10:57 65° NNE
Cosmos 883 Rocket 4.4 00:06:15 10° N 00:12:25 68° E 00:13:21 59° SE
H-2A R/B 4.1 00:14:15 17° W 00:14:15 17° W 00:16:52 10° NW
Cosmos 1300 Rocket 4.3 00:18:05 46° NE 00:18:05 46° NE 00:21:28 10° NNE
Cosmos 2227 Rocket 2.0 00:15:18 10° NNW 00:20:59 81° WSW 00:21:18 77° SSW
GP-B 3.9 00:16:45 10° NNE 00:20:22 45° ENE 00:20:22 45° ENE
CZ-2C R/B 2.4 00:17:50 10° NNE 00:23:02 83° WNW 00:23:17 80° SW
Cosmos 1536 3.9 00:27:01 42° NE 00:27:01 42° NE 00:29:52 10° NNE
Cosmos 2056 Rocket 3.7 00:27:06 55° ENE 00:27:06 55° ENE 00:31:34 10° NNE
CZ-4B R/B 4.0 00:28:01 17° NE 00:28:01 17° NE 00:29:46 10° NNE
Meteor 1-11 Rocket 3.7 00:31:22 71° SSW 00:32:04 86° W 00:38:04 10° N
Gbstr 26 Del rocket 4.2 00:28:50 10° WNW 00:31:14 33° NW 00:31:14 33° NW
Cosmos 1656 3.6 00:33:34 70° E 00:33:34 70° E 00:38:54 10° NNE
Meteor 1-23 Rocket 4.2 00:29:23 10° N 00:35:04 68° ENE 00:35:28 65° ESE
Mayak -0.4 00:33:33 10° NNE 00:36:40 45° NE 00:36:40 45° NE
Cosmos 2369 3.7 00:42:05 68° WSW 00:42:42 77° WNW 00:48:26 10° NNE
Meteor 2-4 Rocket 3.5 00:38:54 10° NNW 00:44:15 75° W 00:44:16 75° W
Cosmos 1980 Rocket 3.0 00:48:17 37° E 00:48:17 37° E 00:52:58 10° NE
Meteor 1-5 Rocket 4.1 00:48:15 76° ESE 00:48:27 77° E 00:54:00 10° NNE
Cosmos 1452 Rocket 4.3 00:53:21 40° E 00:53:21 40° E 00:57:48 10° NE
ISS -1.0 00:54:47 10° NW 00:57:14 19° N 00:59:41 10° NE
Okean 1 Rocket 3.6 00:59:17 57° NNW 00:59:17 57° NNW 01:02:51 10° N
Okean 1-7 Rocket 4.0 00:59:16 10° N 01:02:52 59° N 01:02:52 59° N
Cosmos 2315 Rocket 4.1 01:03:15 10° NNW 01:09:21 60° W 01:10:00 57° WSW
Cosmos 1697 Rocket 2.6 01:14:58 74° WSW 01:15:21 79° WNW 01:21:01 10° NNE
Cosmos 2297 Rocket 3.1 01:10:23 10° NW 01:15:01 35° W 01:15:01 35° W
Cosmos 1975 4.0 01:20:34 38° NE 01:20:34 38° NE 01:23:31 10° NNE
Cosmos 1420 Rocket 4.4 01:22:09 50° E 01:22:09 50° E 01:26:54 10° NNE
USA 234 4.0 01:17:59 10° ENE 01:23:38 34° SE 01:23:38 34° SE
Cosmos 839 Rocket 3.9 01:27:31 63° SSE 01:28:06 66° ESE 01:34:13 10° NE
Cosmos 1025 Rocket 4.0 01:23:58 10° NNW 01:27:10 40° NW 01:27:10 40° NW
Cosmos 676 Rocket 4.1 01:25:22 10° NNW 01:30:13 63° W 01:30:13 63° W
SL-16 R/B 3.4 01:30:23 29° ESE 01:30:36 29° ESE 01:35:26 10° NE
CZ-4C R/B 2.8 01:27:50 10° NW 01:35:01 90° ENE 01:38:04 42° SE
PSLV R/B 4.2 01:33:44 10° NNE 01:38:14 54° E 01:38:14 54° E
H-2A R/B 3.2 01:34:37 10° NNE 01:37:42 45° NE 01:37:42 45° NE
Cosmos 2322 Rocket 3.1 01:38:35 34° ESE 01:38:56 35° ESE 01:44:03 10° NE
ADEOS Rocket 4.5 01:35:13 10° NE 01:40:04 24° E 01:41:50 20° ESE
USA 229 DEB 4.1 01:42:08 37° WSW 01:44:46 59° NW 01:51:40 10° NNE
USA 229 4.0 01:42:16 37° WSW 01:44:52 59° NW 01:51:46 10° NNE
Cosmos 2360 4.0 01:45:00 75° SSW 01:45:32 89° WNW 01:51:17 10° NNE
Cosmos 1140 Rocket 3.5 01:40:33 10° NNW 01:45:27 68° W 01:45:27 68° W
Cosmos 1741 Rocket 4.2 01:40:51 10° NNW 01:46:03 66° ENE 01:46:47 59° ESE
NOSS 3-1 (A) 3.4 01:50:00 58° SE 01:50:33 61° ESE 01:56:53 10° NE
Cosmos 1666 4.0 01:51:40 35° ENE 01:51:40 35° ENE 01:54:35 10° NNE
Helios 1A Rocket 4.3 01:48:21 10° NE 01:51:30 29° E 01:51:30 29° E
Resurs 1-4 Rocket 4.3 01:50:41 10° ENE 01:53:21 14° E 01:55:28 11° ESE
Cosmos 1238 Rocket 4.0 01:50:30 10° NNW 01:55:35 51° W 01:55:51 51° WSW
Meteor 1-12 Rocket 4.1 01:56:37 68° SSW 01:57:23 83° W 02:03:10 10° N
Cosmos 1892 Rocket 4.2 01:53:34 10° NNW 01:57:13 47° WNW 01:57:13 47° WNW
Cosmos 2227 4.0 01:52:40 10° NNW 01:58:17 74° WSW 01:58:38 71° SW
CZ-4B R/B 3.8 02:01:35 19° NW 02:01:35 19° NW 02:02:55 10° NW
Cosmos 2227 Rocket 4.5 02:02:48 10° W 02:03:06 10° W 02:03:06 10° W
Nadezhda 1 Rocket 3.9 01:58:52 10° NNW 02:04:56 67° W 02:05:55 58° SW
Cosmos 1066 Rocket 4.1 02:01:31 10° NNW 02:06:50 60° W 02:07:01 60° WSW
Cosmos 405 4.2 02:09:44 40° N 02:09:44 40° N 02:12:09 10° N
Cosmos 1709 Rocket 4.0 02:08:07 50° SSE 02:09:37 69° E 02:15:42 10° NNE
Mayak 1.2 02:10:58 10° NW 02:12:51 13° WNW 02:13:19 13° WNW
NPP 4.3 02:10:47 10° NNE 02:15:57 45° E 02:17:14 38° SE
CZ-2D R/B 3.9 02:12:37 10° NE 02:16:57 23° E 02:19:20 18° SE
Cosmos 1626 Rocket 3.5 02:13:51 10° N 02:18:06 84° N 02:18:06 84° N
Cosmos 2263 Rocket 2.5 02:16:28 10° NNW 02:22:09 66° ENE 02:25:00 30° SE
Cosmos 1842 3.5 02:21:38 10° N 02:25:18 64° ENE 02:25:18 64° ENE
Cosmos 1461 3.8 02:21:56 10° NW 02:24:57 40° WNW 02:24:57 40° WNW
Lacrosse 5 rocket 4.5 02:26:44 10° NNW 02:28:52 14° NNE 02:31:03 10° NE
Cosmos 1743 3.6 02:30:10 42° NW 02:30:10 42° NW 02:33:19 10° N
Cosmos 44 Rocket 4.0 02:25:05 10° NNW 02:29:42 51° NE 02:33:18 16° SE
Cosmos 2360 Rocket 3.2 02:29:01 30° SE 02:30:38 36° ESE 02:35:45 10° NE
SL-16 R/B 3.3 02:26:51 15° SE 02:31:48 49° ENE 02:37:48 10° N
Cosmos 1980 Rocket 3.3 02:30:02 28° W 02:31:50 34° NW 02:36:57 10° N
ISS -2.5 02:31:11 10° NW 02:34:19 41° NNE 02:37:25 10° E
NOSS 3-1 (C) 3.9 02:32:23 36° WSW 02:34:37 55° NW 02:41:07 10° NNE
Cosmos 1825 Rocket 4.4 02:34:09 10° N 02:38:26 47° ENE 02:39:51 34° SE
USA 81 4.5 02:36:15 10° NNW 02:41:16 44° W 02:41:47 43° WSW
Cosmos 2184 Rocket 4.5 02:42:25 29° SSE 02:45:27 54° E 02:51:27 10° NNE
SL-08 ROCKET BODY 4.5 02:43:22 39° S 02:45:45 75° E 02:51:49 10° N
Cosmos 2181 Rocket 4.0 02:40:32 10° NNW 02:46:56 74° W 02:49:21 41° S
Cosmos 220 Rocket 3.7 02:47:12 10° NNW 02:51:25 76° WSW 02:51:39 73° SW
Cosmos 1437 Rocket 3.4 02:54:20 44° WNW 02:54:24 44° WNW 02:58:23 10° N
Cosmos 1302 Rocket 4.5 02:54:06 35° SSE 02:55:58 53° ESE 03:01:07 10° NNE
Cosmos 2322 4.3 02:54:10 32° SSE 02:56:21 48° ESE 03:01:47 10° NE
Cosmos 1110 Rocket 4.0 02:58:42 48° SW 03:00:06 73° WNW 03:05:18 10° NNE
IRS-1D 3.9 02:57:47 10° NNE 03:02:39 54° E 03:04:47 31° SSE
Spot 4 Rocket 4.4 02:58:55 10° NNE 03:04:03 59° ESE 03:06:20 32° SSE
Meteor 1-4 Rocket 2.5 03:04:51 67° SE 03:05:06 70° E 03:08:40 10° NNE
BREEZE-M DEB (TANK) 3.6 03:00:06 10° W 03:06:05 38° NNW 03:08:42 10° NE
USA 234 3.4 03:00:38 10° NE 03:07:10 73° NW 03:10:58 27° WSW
Meteor 1-15 Rocket 4.2 03:07:12 38° SSW 03:09:29 86° W 03:15:14 10° N
NOSS 2-3 (D) 4.2 03:08:09 39° S 03:09:39 55° ESE 03:14:56 10° NE
Cosmos 1707 3.7 03:06:55 10° N 03:10:39 45° ENE 03:12:43 23° SE
Cosmos 1378 4.4 03:09:53 10° N 03:13:24 37° ENE 03:15:47 17° SE
SL-16 R/B 2.9 03:12:15 30° WSW 03:14:30 43° WNW 03:19:55 10° NNE
Cosmos 1953 Rocket 3.5 03:12:15 10° N 03:16:46 88° E 03:18:41 34° S
Cosmos 2058 Rocket 3.5 03:15:38 30° SSE 03:17:42 58° E 03:22:09 10° NNE
Cosmos 2074 Rocket 4.0 03:15:33 31° SSW 03:18:45 82° W 03:25:06 10° N
OAO 3 Rocket 4.2 03:21:51 28° SSE 03:21:51 28° SSE 03:25:49 10° ESE
Cosmos 2322 Rocket 3.1 03:20:24 25° WSW 03:22:55 38° WNW 03:28:14 10° N
SL-08 R/B 3.8 03:22:22 37° WSW 03:23:00 39° W 03:27:19 10° NNW
CZ-4C R/B 4.1 03:17:41 10° WNW 03:23:01 22° WSW 03:23:10 22° WSW
Cosmos 44 3.0 03:20:52 10° NW 03:25:11 58° WSW 03:27:11 30° S
ADEOS Rocket 3.3 03:19:56 10° N 03:26:02 53° WNW 03:28:46 30° SW
Helios 1A Rocket 4.4 03:23:50 10° NNW 03:27:02 23° WNW 03:27:47 21° W
ARIANE 5 R/B 2.5 03:23:45 10° NNE 03:28:54 85° ESE 03:31:41 28° S
ADEOS II 4.4 03:27:28 10° NE 03:31:08 19° E 03:34:46 10° SE
Resurs 1-4 Rocket 2.1 03:28:29 10° N 03:33:46 77° WNW 03:36:32 29° SSW
Cosmos 1184 Rocket 3.4 03:30:34 10° N 03:33:51 55° ENE 03:35:47 22° SSE
Okean O Rocket 4.5 03:33:43 10° ENE 03:35:16 12° E 03:36:49 10° ESE
ATLAS 2AS CENTAUR R/B 3.2 03:31:06 25° SSW 03:36:04 73° ESE 03:44:12 10° NE
BREEZE M DEB (TANK) 3.8 03:37:17 13° NW 03:39:01 28° N 03:42:38 10° ENE
Cosmos 1726 Rocket 3.7 03:37:54 34° SW 03:39:33 58° W 03:43:57 10° N
Cosmos 2154 Rocket 4.1 03:34:55 18° S 03:39:45 78° E 03:46:02 10° N
Cosmos 1610 Rocket 4.4 03:38:53 23° SSW 03:42:52 78° W 03:49:03 10° N
USA 161 4.0 03:42:01 10° SE 03:44:28 23° ENE 03:46:52 10° NNE
MOZ.5/SAFIR/RUBIN 5/SL-8 3.7 03:41:24 12° SSE 03:45:40 87° ENE 03:50:19 10° NNW
SL-8 R/B 3.6 03:43:49 28° WSW 03:46:21 85° SSE 03:51:13 10° ENE
Cosmos 1607 3.9 03:41:41 10° NW 03:48:10 81° WSW 03:54:37 10° SSE
NOSS 2-3 (E) 4.0 03:45:48 28° SW 03:48:22 71° NW 03:53:58 10° NNE
Cosmos 1340 Rocket 3.1 03:46:19 10° N 03:50:17 66° ENE 03:54:12 10° SSE
CZ-2D R/B 3.7 03:47:31 10° NNE 03:51:52 70° ESE 03:54:51 19° S
Cosmos 389 Rocket 3.2 03:51:43 17° SSE 03:54:11 50° E 03:57:42 10° NNE
Cosmos 1606 Rocket 4.4 03:52:34 25° WSW 03:54:16 34° WNW 03:58:20 10° N
MOS 1 Rocket 3.1 03:50:30 10° N 03:55:01 69° WNW 03:57:37 24° SSW
Cosmos 2237 4.2 03:53:17 23° SSW 03:56:55 75° WNW 04:02:37 10° NNE
CZ-2D R/B 2.6 03:51:58 10° N 03:57:16 50° WNW 04:00:39 21° SW
BREEZE-M DEB (TANK) 4.3 03:57:13 20° SSW 04:00:22 52° SE 04:16:35 10° ENE
Cosmos 2341 Rocket 4.1 03:54:27 12° S 04:00:30 81° E 04:06:54 10° N
Aureole 2 Rocket 3.5 03:57:29 16° S 04:00:37 50° ESE 04:04:33 10° NNE
Cosmos 1271 Rocket 2.7 03:59:30 23° SSW 04:01:54 75° W 04:05:55 10° N
Meteor 2-8 Rocket 4.5 03:56:42 10° NNW 04:02:41 61° W 04:08:36 10° S
DELTA 2 R/B (1) 3.8 04:00:35 21° WSW 04:04:12 54° S 04:09:37 10° E
Cosmos 2263 Rocket 3.6 04:01:41 10° WNW 04:05:29 19° W 04:06:36 18° WSW
ATLAS 3B R/B 2.7 03:59:17 10° NW 04:06:06 86° NE 04:12:36 10° SE
UNKNOWN OBJECT B 2.8 04:03:12 10° N 04:07:01 67° WNW 04:09:32 20° SSW
Lacrosse 5 rocket 2.6 04:05:06 10° NW 04:08:55 43° NE 04:12:56 10° ESE
ISS -3.1 04:07:49 10° WNW 04:10:43 30° SW 04:13:36 10° SSE
Cosmos 44 Rocket 4.5 04:07:21 10° WNW 04:10:52 21° WSW 04:11:52 19° SW
SeaSat 1 3.6 04:06:36 10° SE 04:11:18 47° ENE 04:16:02 10° NNW
In-Cosmos 22 4.3 04:06:04 10° N 04:11:27 76° E 04:16:43 10° SSE
Cosmos 2360 Rocket 3.1 04:10:47 17° WSW 04:14:37 36° NW 04:19:48 10° N
Cosmos 1354 Rocket 4.1 04:09:45 10° NNW 04:14:56 55° WSW 04:20:06 10° S
SL-16 R/B 3.4 04:11:56 17° SW 04:15:37 29° W 04:20:59 10° NW
BREEZE M DEB (TANK) 3.2 04:14:41 17° W 04:16:22 34° SSW 04:20:55 10° SE
Cosmos 2219 Rocket 2.4 04:12:53 13° SSW 04:18:01 73° ESE 04:23:43 10° NNE
COSMOS 2428 2.8 04:16:07 17° SW 04:20:39 67° WNW 04:26:25 10° NNE
Cosmos 2237 Rocket 3.2 04:17:17 10° S 04:22:35 44° ESE 04:27:54 10° NE
Cosmos 1953 3.6 04:20:32 10° SSE 04:24:18 40° E 04:28:05 10° NNE
Cosmos 1844 Rocket 2.8 04:20:38 10° NNW 04:26:12 58° WSW 04:31:44 10° S
Cosmos 1544 3.0 04:24:19 11° S 04:27:53 83° W 04:31:38 10° N
CZ-4B R/B 3.9 04:25:50 10° NNE 04:29:31 44° E 04:33:23 10° S
Cosmos 2228 4.2 04:27:01 15° WSW 04:29:35 26° WNW 04:33:14 10° NNW
USA 238 DEB 3.8 04:22:53 10° NW 04:30:00 83° SW 04:37:09 10° SSE
USA 238 3.8 04:22:59 10° NW 04:30:06 83° SW 04:37:16 10° SSE
PSLV R/B 4.3 04:31:34 10° NNE 04:35:28 62° E 04:39:25 10° S
Cosmos 968 Rocket 3.6 04:31:25 10° NNW 04:36:38 82° ENE 04:41:45 10° SSE
Cosmos 1470 4.4 04:35:43 10° SSE 04:39:17 34° E 04:42:50 10° NNE
Cosmos 2333 Rocket 2.3 04:33:45 10° SSW 04:39:27 87° ESE 04:45:11 10° NNE
Cosmos 1809 Rocket 4.5 04:38:49 10° S 04:44:56 81° W 04:51:08 10° N
NOSS 3-2 (A) 4.3 04:39:21 10° NW 04:46:50 74° NE 04:54:58 10° SE
Meteor 1-24 Rocket 4.2 04:44:45 10° NNW 04:49:43 38° W 04:54:48 10° SSW
Cosmos 2278 Rocket 2.2 04:47:27 10° NNW 04:53:09 87° WSW 04:58:49 10° SSE
Cosmos 1766 4.3 04:49:57 10° SW 04:53:24 29° WNW 04:56:53 10° NNW
Meteor 2-21 4.5 04:47:22 10° SSW 04:53:26 73° W 04:59:35 10° N
ERBS 3.2 04:51:00 10° SSW 04:54:18 43° SE 04:57:36 10° ENE
Timation 1 Rocket 4.4 04:48:33 10° NNW 04:54:33 86° WSW 05:00:32 10° SSE
BREEZE M DEB (TANK) 4.0 04:53:05 10° WNW 04:55:15 21° N 04:56:59 10° NE
Meteor 2-14 Rocket 4.5 04:50:47 10° S 04:56:51 88° W 05:02:59 10° N
OAO 3 Rocket 4.3 05:00:28 10° WSW 05:04:34 27° S 05:08:42 10° SE
SL-8 Rocket 4.3 04:59:52 10° SSW 05:06:01 52° WNW 05:12:11 10° N
Cosmos 1812 Rocket 4.5 05:02:22 10° SW 05:06:16 31° WNW 05:10:11 10° NNW
NOSS 3-2 (C) 4.3 04:59:37 10° NW 05:07:08 77° NE 05:15:17 10° SE
